Location: McCall
(45.0000°N, 116.0000°W)
Time: 19:48:57
(UTC-07:00)

Amateur Radio Satellites - All Passes

Search period start: 03 March 2015 19:18
Search period end: 04 March 2015 19:18
Location: McCall, 45.0000°N, 116.0000°W

Satellite Date Start Highest point End Downlink Frequencies (MHz)
Time Altitude Azimuth
AIST 2 03 Mar 19:19:57 19:24:04 45° 311° (NW) 19:28:15 435.215
SEEDS 03 Mar 19:21:15 19:21:56 10° 61° (ENE) 19:22:48 437.485
CANX-2 03 Mar 19:24:33 19:26:51 15° 63° (ENE) 19:29:18 2200.000
VERMONT LUNAR 03 Mar 19:36:10 19:39:27 38° 177° (S) 19:42:45 437.305
CUTE 1.7 + AOD 2 03 Mar 19:42:07 19:45:10 20° 66° (ENE) 19:48:19 437.475
Cubesat XI-IV 03 Mar 19:44:25 19:47:33 15° 273° (W) 19:50:26 437.490
PHONESAT 2.4 03 Mar 19:48:04 19:51:26 36° 171° (S) 19:54:49 2401.200-2431.200
CUTE-I 03 Mar 19:53:57 19:56:20 12° 275° (W) 19:58:26 437.470
GOMX 1 03 Mar 19:54:01 19:58:47 35° 69° (ENE) 20:03:23 467.674
BRITE-PL 03 Mar 19:54:23 19:59:48 51° 72° (ENE) 20:04:59 437.365/2234.400
PCSat 03 Mar 20:04:00 20:07:53 21° 108° (ESE) 20:11:56 145.827
HO-68 03 Mar 20:10:34 20:17:36 64° 68° (ENE) 20:24:41 435.675
CUBESAT XI-V 03 Mar 20:20:35 20:24:45 31° 292° (WNW) 20:28:50 437.345
AAUSAT CUBESAT 2 03 Mar 20:20:54 20:24:31 30° 69° (ENE) 20:28:12 437.432
Oscar 11 03 Mar 20:22:53 20:25:42 18° 64° (ENE) 20:28:39 145.826/435.025
DOVE 4 03 Mar 20:23:15 20:28:03 45° 72° (ENE) 20:32:41 437.250
CINEMA 3 03 Mar 20:23:40 20:27:27 25° 67° (ENE) 20:31:11 145.822/145.860
COMPASS 1 03 Mar 20:24:12 20:28:02 37° 71° (ENE) 20:31:55 437.405
GONETS M04 03 Mar 20:27:06 20:30:32 13° 74° (ENE) 20:34:35
PRISM 03 Mar 20:35:59 20:39:05 19° 295° (WNW) 20:42:03 437.425
CUBEBUG 2 03 Mar 20:37:08 20:40:12 19° 66° (ENE) 20:43:21 437.445
O/OREOS (USA 219) 03 Mar 20:39:00 20:42:22 20° 258° (WSW) 20:45:34 437.305
DX 1 03 Mar 20:49:08 20:52:03 18° 63° (ENE) 20:55:05 434.975-435.025
SEEDS 03 Mar 20:52:58 20:57:10 87° 261° (W) 21:01:23 437.485
STRAND 1 03 Mar 20:54:30 20:58:58 30° 295° (WNW) 21:03:21 437.568
CANX-2 03 Mar 20:58:13 21:02:23 59° 260° (W) 21:06:34 2200.000
AISAT 03 Mar 21:00:20 21:01:05 10° 59° (ENE) 21:02:05 437.250
AIST 2 03 Mar 21:02:46 21:03:48 11° 333° (NNW) 21:04:44 435.215
HUMSAT D 03 Mar 21:06:20 21:08:20 14° 63° (ENE) 21:10:31 437.325/437.525
VELOX 1 03 Mar 21:08:13 21:09:57 12° 60° (ENE) 21:11:53 145.980
FUNcube-1 03 Mar 21:09:15 21:12:50 26° 68° (ENE) 21:16:25 145.935
ZACube-1 03 Mar 21:10:52 21:14:32 28° 68° (ENE) 21:18:12 437.345
VERMONT LUNAR 03 Mar 21:13:53 21:17:00 30° 193° (SSW) 21:20:07 437.305
UKube-1 03 Mar 21:16:07 21:19:54 30° 68° (ENE) 21:23:45 .
CUTE 1.7 + AOD 2 03 Mar 21:16:53 21:20:53 40° 263° (W) 21:24:52 437.475
DELFI C3 03 Mar 21:21:05 21:24:59 52° 73° (ENE) 21:28:57 145.870
RS-15 03 Mar 21:26:09 21:26:31 10° 95° (E) 21:28:02 29.354- 29.394
PHONESAT 2.4 03 Mar 21:26:10 21:29:33 37° 188° (S) 21:32:57 2401.200-2431.200
ESTCUBE 1 03 Mar 21:30:05 21:30:12 10° 58° (ENE) 21:30:33 437.505/2401.250
GOMX 1 03 Mar 21:32:05 21:36:55 33° 265° (W) 21:41:29 467.674
UWE-3 03 Mar 21:32:06 21:36:24 55° 73° (ENE) 21:40:39 435.000/436.395/437.385
BRITE-PL 03 Mar 21:33:57 21:38:33 25° 268° (W) 21:42:53 437.365/2234.400
PCSat 03 Mar 21:45:30 21:50:52 63° 305° (NW) 21:56:18 145.827
AAUSAT CUBESAT 2 03 Mar 21:56:46 22:00:13 25° 266° (W) 22:03:37 437.432
Oscar 11 03 Mar 21:57:23 22:01:34 49° 261° (W) 22:05:46 145.826/435.025
HO-68 03 Mar 21:59:58 22:05:54 27° 268° (W) 22:11:41 435.675
CINEMA 3 03 Mar 22:00:05 22:04:32 38° 263° (W) 22:08:47 145.822/145.860
COMPASS 1 03 Mar 22:00:47 22:03:56 20° 268° (W) 22:06:59 437.405
DOVE 4 03 Mar 22:01:52 22:06:01 24° 268° (W) 22:09:54 437.250
CUBEBUG 2 03 Mar 22:12:18 22:16:39 47° 261° (W) 22:20:53 437.445
ANTELSAT 03 Mar 22:14:17 22:16:06 13° 88° (E) 22:18:08 437.575/2403.000
GONETS M04 03 Mar 22:17:19 22:25:53 69° 94° (E) 22:34:32
50 SAT 03 Mar 22:23:19 22:27:14 59° 74° (ENE) 22:31:09 437.505
DX 1 03 Mar 22:23:40 22:27:58 52° 260° (W) 22:32:17 434.975-435.025
CUBEBUG 1 03 Mar 22:32:06 22:36:08 35° 69° (ENE) 22:40:14 437.445
AISAT 03 Mar 22:32:32 22:37:02 82° 77° (ENE) 22:41:34 437.250
HUMSAT D 03 Mar 22:39:32 22:43:42 64° 259° (W) 22:47:50 437.325/437.525
VELOX 1 03 Mar 22:41:26 22:45:57 84° 258° (WSW) 22:50:29 145.980
NANOSAT C BR1 03 Mar 22:42:39 22:44:45 14° 89° (E) 22:47:01 145.865
FUNcube-1 03 Mar 22:45:12 22:49:07 31° 264° (W) 22:52:55 145.935
ZACube-1 03 Mar 22:47:01 22:50:53 29° 265° (W) 22:54:37 437.345
UKube-1 03 Mar 22:52:17 22:56:04 28° 265° (W) 22:59:49 .
VERMONT LUNAR 03 Mar 22:52:55 22:54:18 12° 208° (SSW) 22:55:36 437.305
DELFI C3 03 Mar 22:58:22 23:00:35 14° 271° (W) 23:02:38 145.870
TISAT 1 03 Mar 22:59:53 23:02:39 17° 64° (ENE) 23:05:32 437.305
SPROUT 03 Mar 23:00:20 23:03:21 19° 65° (ENE) 23:06:29 437.525
ESTCUBE 1 03 Mar 23:01:50 23:06:22 78° 75° (ENE) 23:10:57 437.505/2401.250
PHONESAT 2.4 03 Mar 23:04:57 23:07:30 18° 204° (SSW) 23:10:01 2401.200-2431.200
UNISAT 6 03 Mar 23:10:22 23:14:33 49° 99° (E) 23:18:47 437.425
UWE-3 03 Mar 23:10:40 23:13:20 15° 270° (W) 23:15:49 435.000/436.395/437.385
QB50P1 03 Mar 23:14:37 23:18:20 30° 95° (E) 23:22:05 145.935-145.965
BUGSAT 1 03 Mar 23:18:25 23:21:48 24° 93° (E) 23:25:13 437.445
QB50P2 03 Mar 23:18:50 23:22:42 34° 96° (E) 23:26:33 145.880/145.840
RS-15 03 Mar 23:26:09 23:36:35 56° 115° (ESE) 23:47:14 29.354- 29.394
PCSat 03 Mar 23:32:15 23:35:28 15° 328° (NNW) 23:38:34 145.827
DUCHIFAT 1 03 Mar 23:32:37 23:36:41 46° 99° (E) 23:40:44 145.980
TIGRISAT 03 Mar 23:34:45 23:39:03 87° 103° (ESE) 23:43:23 435.000
DANDE 03 Mar 23:40:16 23:45:24 26° 95° (E) 23:49:39 436.750
ANTELSAT 03 Mar 23:49:09 23:53:25 65° 286° (WNW) 23:57:43 437.575/2403.000
ITUPSAT 1 03 Mar 23:51:25 23:53:05 12° 58° (ENE) 23:54:59 437.325
POPSAT HIP 1 03 Mar 23:54:09 23:58:25 81° 103° (ESE) 00:02:37 437.405
POLYITAN 1 03 Mar 23:54:19 23:58:35 83° 103° (ESE) 00:02:48 437.675
50 SAT 04 Mar 00:01:05 00:02:42 12° 272° (W) 00:04:06 437.505
CUSAT 1 04 Mar 00:01:41 00:07:24 45° 98° (E) 00:11:47 437.405
CUBEBUG 1 04 Mar 00:08:55 00:12:37 25° 267° (W) 00:16:15 437.445
AISAT 04 Mar 00:13:06 00:14:21 11° 274° (W) 00:15:19 437.250
GONETS M04 04 Mar 00:16:12 00:23:36 29° 297° (WNW) 00:30:49
NANOSAT C BR1 04 Mar 00:16:54 00:21:04 57° 287° (WNW) 00:25:10 145.865
BEESAT 2 04 Mar 00:19:40 00:21:11 12° 30° (NNE) 00:22:49 435.950
TISAT 1 04 Mar 00:33:57 00:38:08 51° 260° (W) 00:42:19 437.305
SPROUT 04 Mar 00:34:59 00:39:10 46° 261° (W) 00:43:22 437.525
ESTCUBE 1 04 Mar 00:42:14 00:43:55 12° 274° (W) 00:45:20 437.505/2401.250
UNISAT 6 04 Mar 00:48:06 00:51:04 18° 296° (WNW) 00:53:54 437.425
SWISSCUBE 04 Mar 00:49:13 00:53:42 42° 70° (ENE) 00:58:15 437.505
QB50P1 04 Mar 00:50:35 00:54:10 26° 293° (WNW) 00:57:40 145.935-145.965
BUGSAT 1 04 Mar 00:53:38 00:57:22 31° 291° (WNW) 01:00:58 437.445
QB50P2 04 Mar 00:55:03 00:58:28 24° 294° (WNW) 01:01:50 145.880/145.840
BEESAT 04 Mar 00:57:30 01:02:03 47° 70° (ENE) 01:06:40 436.000
Oscar 19 04 Mar 00:58:51 01:01:12 13° 87° (E) 01:03:49 437.125/150
SO-50 04 Mar 01:01:18 01:04:21 18° 111° (ESE) 01:07:38 436.795
DUCHIFAT 1 04 Mar 01:09:18 01:12:15 18° 296° (WNW) 01:15:04 145.980
TIGRISAT 04 Mar 01:14:05 01:15:15 11° 300° (WNW) 01:16:12 435.000
DANDE 04 Mar 01:22:30 01:28:43 45° 284° (WNW) 01:33:23 436.750
ITUPSAT 1 04 Mar 01:25:30 01:30:18 85° 75° (ENE) 01:35:08 437.325
BEESAT 3 04 Mar 01:29:08 01:33:02 37° 47° (NE) 01:36:53 437.485
POPSAT HIP 1 04 Mar 01:32:17 01:33:44 11° 300° (WNW) 01:35:01 437.405
POLYITAN 1 04 Mar 01:32:35 01:33:56 11° 300° (WNW) 01:35:06 437.675
RS-15 04 Mar 01:38:35 01:49:12 52° 320° (NW) 02:00:01 29.354- 29.394
CUSAT 1 04 Mar 01:45:49 01:50:18 23° 288° (WNW) 01:53:50 437.405
BEESAT 2 04 Mar 01:56:10 02:00:18 57° 51° (NE) 02:04:22 435.950
AIST 2 04 Mar 02:01:41 02:05:29 30° 44° (NE) 02:09:16 435.215
YUBILEINY 04 Mar 02:16:27 02:23:37 28° 62° (ENE) 02:31:00 435.215
Gurwin Techsat 1B 04 Mar 02:19:13 02:23:02 20° 90° (E) 02:27:00 435.225
KKS-1 04 Mar 02:22:43 02:27:09 67° 74° (ENE) 02:31:37 437.445
STARS 04 Mar 02:25:55 02:30:09 47° 71° (ENE) 02:34:26 437.465
SWISSCUBE 04 Mar 02:27:55 02:31:47 23° 268° (W) 02:35:34 437.505
Oscar 19 04 Mar 02:36:09 02:41:18 80° 287° (WNW) 02:46:26 437.125/150
BEESAT 04 Mar 02:36:32 02:40:12 21° 268° (W) 02:43:46 436.000
ITAMSAT 1 04 Mar 02:37:52 02:42:43 37° 97° (E) 02:47:33 435.822/435.867
SO-50 04 Mar 02:39:52 02:44:28 63° 309° (NW) 02:49:15 436.795
M-CUBED/EXP-1 PRIME 04 Mar 02:45:15 02:45:42 10° 55° (NE) 02:46:19 437.505
ITUPSAT 1 04 Mar 03:07:15 03:08:58 11° 274° (W) 03:10:24 437.325
BEESAT 3 04 Mar 03:07:32 03:10:59 25° 245° (WSW) 03:14:19 437.485
BEESAT 2 04 Mar 03:35:26 03:38:06 16° 248° (WSW) 03:40:35 435.950
AIST 2 04 Mar 03:40:14 03:44:09 35° 243° (WSW) 03:47:58 435.215
MOZHAYETS 4 04 Mar 03:45:34 03:49:20 26° 67° (ENE) 03:53:12
JAS-2 04 Mar 03:54:25 04:00:02 23° 88° (E) 04:06:07 435.910
RS-15 04 Mar 03:55:47 04:04:55 28° 352° (N) 04:14:15 29.354- 29.394
Gurwin Techsat 1B 04 Mar 03:58:14 04:03:28 57° 289° (WNW) 04:08:39 435.225
KKS-1 04 Mar 04:02:06 04:04:21 13° 272° (W) 04:06:23 437.445
STARS 04 Mar 04:03:49 04:06:56 18° 269° (W) 04:09:56 437.465
YUBILEINY 04 Mar 04:12:38 04:21:28 74° 265° (W) 04:30:14 435.215
AO-7 04 Mar 04:14:15 04:21:46 38° 96° (E) 04:29:22 29.400- 29.500
HORYU 2 04 Mar 04:15:47 04:20:14 67° 102° (ESE) 04:24:40 437.375
M-CUBED/EXP-1 PRIME 04 Mar 04:16:53 04:20:11 63° 253° (WSW) 04:23:39 437.505
AUBIESAT-1 04 Mar 04:17:27 04:20:46 72° 252° (WSW) 04:24:17 437.475
ITAMSAT 1 04 Mar 04:17:33 04:22:09 31° 294° (WNW) 04:26:39 435.822/435.867
Oscar 19 04 Mar 04:17:46 04:19:56 12° 303° (WNW) 04:21:52 437.125/150
SO-50 04 Mar 04:23:14 04:26:02 15° 331° (NNW) 04:28:47 436.795
PCSat 04 Mar 04:48:28 04:53:12 30° 44° (NE) 04:57:59 145.827
STRAND 1 04 Mar 04:58:29 04:59:29 11° 55° (NE) 05:00:45 437.568
MOZHAYETS 4 04 Mar 05:22:16 05:26:28 35° 264° (W) 05:30:40
JAS-2 04 Mar 05:38:20 05:45:48 81° 286° (WNW) 05:53:40 435.910
CUBESAT XI-V 04 Mar 05:48:22 05:52:41 38° 70° (ENE) 05:57:05 437.345
PRISM 04 Mar 05:52:04 05:55:59 42° 70° (ENE) 05:59:57 437.425
HORYU 2 04 Mar 05:53:53 05:56:26 15° 298° (WNW) 05:58:49 437.375
AO-7 04 Mar 06:06:52 06:14:54 55° 296° (WNW) 06:22:51 29.400- 29.500
RS-15 04 Mar 06:11:32 06:21:33 36° 26° (NNE) 06:32:05 29.354- 29.394
YUBILEINY 04 Mar 06:12:04 06:16:53 15° 285° (WNW) 06:21:09 435.215
Cubesat XI-IV 04 Mar 06:17:14 06:21:41 27° 93° (E) 06:26:13 437.490
CUTE-I 04 Mar 06:25:34 06:30:16 31° 94° (E) 06:35:01 437.470
PCSat 04 Mar 06:31:38 06:36:55 51° 245° (WSW) 06:42:07 145.827
STRAND 1 04 Mar 06:32:44 06:37:50 68° 73° (ENE) 06:42:59 437.568
JAS-2 04 Mar 07:24:52 07:30:00 20° 303° (WNW) 07:35:03 435.910
AIST 1 04 Mar 07:25:02 07:29:18 57° 95° (E) 07:33:39
CUBESAT XI-V 04 Mar 07:26:23 07:30:17 25° 268° (W) 07:34:08 437.345
PRISM 04 Mar 07:28:46 07:31:44 18° 269° (W) 07:34:36 437.425
SO-50 04 Mar 07:50:40 07:51:42 11° 20° (NNE) 07:52:50 436.795
Cubesat XI-IV 04 Mar 07:56:54 08:02:01 45° 291° (WNW) 08:07:04 437.490
BRITE-PL 04 Mar 08:00:29 08:01:35 11° 84° (E) 08:02:56 437.365/2234.400
AO-7 04 Mar 08:01:43 08:06:02 15° 318° (NW) 08:09:59 29.400- 29.500
CUTE-I 04 Mar 08:05:29 08:10:27 39° 293° (WNW) 08:15:20 437.470
STRAND 1 04 Mar 08:14:20 08:17:37 16° 272° (W) 08:20:44 437.568
RS-15 04 Mar 08:24:23 08:35:51 84° 54° (NE) 08:47:50 29.354- 29.394
GONETS M04 04 Mar 08:25:11 08:33:08 38° 68° (ENE) 08:41:13
SEEDS 04 Mar 08:37:04 08:39:11 14° 88° (E) 08:41:31 437.485
CANX-2 04 Mar 08:42:19 08:45:29 21° 92° (E) 08:48:46 2200.000
CUTE 1.7 + AOD 2 04 Mar 09:00:17 09:03:59 29° 95° (E) 09:07:43 437.475
TIGRISAT 04 Mar 09:02:17 09:03:35 11° 61° (ENE) 09:05:05 435.000
AIST 1 04 Mar 09:04:51 09:07:27 15° 295° (WNW) 09:09:55
O/OREOS (USA 219) 04 Mar 09:13:02 09:17:13 37° 107° (ESE) 09:21:29 437.305
ANTELSAT 04 Mar 09:15:28 09:18:03 16° 64° (ENE) 09:20:46 437.575/2403.000
HO-68 04 Mar 09:23:32 09:30:35 56° 101° (E) 09:37:38 435.675
ISS 04 Mar 09:23:39 09:26:50 61° 146° (SE) 09:30:02 145.825
SO-50 04 Mar 09:29:18 09:33:46 34° 43° (NE) 09:38:17 436.795
GOMX 1 04 Mar 09:32:00 09:36:23 67° 101° (E) 09:40:33 467.674
BRITE-PL 04 Mar 09:36:22 09:40:57 74° 285° (WNW) 09:45:12 437.365/2234.400
AAUSAT CUBESAT 2 04 Mar 09:37:12 09:41:13 43° 98° (E) 09:45:15 437.432
NANOSAT C BR1 04 Mar 09:37:38 09:40:01 15° 63° (ENE) 09:42:34 145.865
COMPASS 1 04 Mar 09:41:10 09:45:19 55° 100° (E) 09:49:28 437.405
Oscar 11 04 Mar 09:43:06 09:46:40 25° 93° (E) 09:50:18 145.826/435.025
CINEMA 3 04 Mar 09:53:02 09:56:58 40° 97° (E) 10:00:54 145.822/145.860
DOVE 4 04 Mar 09:58:17 10:02:36 88° 103° (ESE) 10:06:45 437.250
CUBEBUG 2 04 Mar 10:01:46 10:05:21 28° 95° (E) 10:08:59 437.445
QB50P1 04 Mar 10:09:24 10:13:08 30° 69° (ENE) 10:16:56 145.935-145.965
BUGSAT 1 04 Mar 10:10:33 10:13:58 24° 67° (ENE) 10:17:27 437.445
DX 1 04 Mar 10:10:39 10:14:06 23° 93° (E) 10:17:36 434.975-435.025
SEEDS 04 Mar 10:11:17 10:15:27 57° 287° (WNW) 10:19:37 437.485
UNISAT 6 04 Mar 10:11:20 10:15:37 56° 73° (ENE) 10:19:52 437.425
QB50P2 04 Mar 10:13:46 10:17:38 34° 69° (ENE) 10:21:32 145.880/145.840
CANX-2 04 Mar 10:17:38 10:21:36 38° 289° (WNW) 10:25:34 2200.000
GONETS M04 04 Mar 10:21:55 10:30:20 53° 270° (W) 10:38:43
HUMSAT D 04 Mar 10:22:52 10:25:34 17° 91° (E) 10:28:25 437.325/437.525
AISAT 04 Mar 10:23:18 10:25:27 14° 88° (E) 10:27:48 437.250
DUCHIFAT 1 04 Mar 10:26:57 10:31:02 45° 71° (ENE) 10:35:08 145.980
FUNcube-1 04 Mar 10:31:19 10:35:13 39° 97° (E) 10:39:10 145.935
VELOX 1 04 Mar 10:31:29 10:34:12 16° 90° (E) 10:37:04 145.980
ZACube-1 04 Mar 10:33:13 10:37:11 42° 98° (E) 10:41:10 437.345
DELFI C3 04 Mar 10:34:02 10:38:08 71° 101° (ESE) 10:42:13 145.870
TIGRISAT 04 Mar 10:35:25 10:39:49 84° 257° (WSW) 10:44:08 435.000
CUTE 1.7 + AOD 2 04 Mar 10:36:13 10:39:53 28° 292° (WNW) 10:43:29 437.475
UKube-1 04 Mar 10:37:24 10:41:31 40° 98° (E) 10:45:38 .
RS-15 04 Mar 10:37:48 10:47:17 30° 254° (WSW) 10:56:39 29.354- 29.394
CUSAT 1 04 Mar 10:39:20 10:41:10 17° 71° (ENE) 10:43:05 437.405
POPSAT HIP 1 04 Mar 10:48:42 10:53:00 79° 75° (ENE) 10:57:18 437.405
POLYITAN 1 04 Mar 10:49:09 10:53:27 81° 76° (ENE) 10:57:45 437.675
ANTELSAT 04 Mar 10:50:11 10:54:30 57° 260° (W) 10:58:46 437.575/2403.000
O/OREOS (USA 219) 04 Mar 10:52:52 10:56:46 27° 306° (NW) 11:00:40 437.305
ESTCUBE 1 04 Mar 10:54:13 10:56:38 14° 88° (E) 10:59:14 437.505/2401.250
UWE-3 04 Mar 10:56:28 11:00:39 87° 290° (WNW) 11:04:49 435.000/436.395/437.385
ISS 04 Mar 11:00:28 11:03:25 32° 345° (NNW) 11:06:23 145.825
SO-50 04 Mar 11:09:47 11:14:27 41° 242° (WSW) 11:19:02 436.795
NANOSAT C BR1 04 Mar 11:11:14 11:15:28 60° 259° (W) 11:19:44 145.865
HO-68 04 Mar 11:11:44 11:18:03 34° 300° (WNW) 11:24:15 435.675
GOMX 1 04 Mar 11:11:48 11:14:00 13° 299° (WNW) 11:15:59 467.674
AAUSAT CUBESAT 2 04 Mar 11:13:36 11:16:37 19° 295° (WNW) 11:19:31 437.432
COMPASS 1 04 Mar 11:18:04 11:20:39 16° 296° (WNW) 11:23:05 437.405
Oscar 11 04 Mar 11:19:01 11:22:55 33° 291° (WNW) 11:26:46 145.826/435.025
CINEMA 3 04 Mar 11:30:56 11:33:59 19° 295° (WNW) 11:36:54 145.822/145.860
50 SAT 04 Mar 11:34:42 11:38:40 76° 102° (ESE) 11:42:38 437.505
CUBEBUG 2 04 Mar 11:38:31 11:42:02 27° 292° (WNW) 11:45:31 437.445
DOVE 4 04 Mar 11:39:08 11:39:44 10° 301° (WNW) 11:40:06 437.250
QB50P1 04 Mar 11:45:23 11:49:03 26° 266° (W) 11:52:40 145.935-145.965
BUGSAT 1 04 Mar 11:45:24 11:49:19 34° 264° (W) 11:53:14 437.445
DX 1 04 Mar 11:46:27 11:50:29 36° 291° (WNW) 11:54:28 434.975-435.025
QB50P2 04 Mar 11:50:08 11:53:38 24° 267° (W) 11:57:04 145.880/145.840
UNISAT 6 04 Mar 11:50:16 11:52:50 15° 271° (W) 11:55:14 437.425
CUBEBUG 1 04 Mar 11:55:03 11:59:24 53° 100° (E) 12:03:41 437.445
HUMSAT D 04 Mar 11:57:43 12:01:37 42° 289° (WNW) 12:05:31 437.325/437.525
AISAT 04 Mar 11:58:10 12:02:36 64° 287° (WNW) 12:06:57 437.250
DANDE 04 Mar 12:03:16 12:05:36 27° 265° (W) 12:07:53 436.750
DUCHIFAT 1 04 Mar 12:04:09 12:07:09 18° 269° (W) 12:10:02 145.980
VELOX 1 04 Mar 12:06:49 12:11:11 53° 288° (WNW) 12:15:29 145.980
FUNcube-1 04 Mar 12:08:17 12:11:22 20° 294° (WNW) 12:14:21 145.935
ZACube-1 04 Mar 12:10:21 12:13:19 19° 295° (WNW) 12:16:12 437.345
DELFI C3 04 Mar 12:11:08 12:12:51 12° 298° (WNW) 12:14:24 145.870
UKube-1 04 Mar 12:14:07 12:17:28 21° 295° (WNW) 12:20:43 .
Oscar 19 04 Mar 12:17:00 12:21:06 25° 64° (ENE) 12:25:18 437.125/150
TISAT 1 04 Mar 12:17:25 12:20:38 21° 92° (E) 12:23:56 437.305
SPROUT 04 Mar 12:20:06 12:23:41 26° 94° (E) 12:27:20 437.525
ITAMSAT 1 04 Mar 12:22:49 12:24:10 11° 55° (NE) 12:25:47 435.822/435.867
CUSAT 1 04 Mar 12:23:17 12:23:53 10° 268° (W) 12:24:21 437.405
POPSAT HIP 1 04 Mar 12:28:44 12:29:32 10° 274° (W) 12:30:05 437.405
ESTCUBE 1 04 Mar 12:29:30 12:34:02 63° 286° (WNW) 12:38:31 437.505/2401.250
ISS 04 Mar 12:37:43 12:40:28 25° 5° (N) 12:43:12 145.825
BEESAT 04 Mar 12:59:19 12:59:26 10° 85° (E) 12:59:52 436.000
50 SAT 04 Mar 13:12:08 13:13:09 11° 298° (WNW) 13:13:59 437.505
ITUPSAT 1 04 Mar 13:25:10 13:28:33 19° 91° (E) 13:32:04 437.325
AO-7 04 Mar 13:27:19 13:31:51 17° 44° (NE) 13:36:44 29.400- 29.500
CUBEBUG 1 04 Mar 13:32:26 13:35:24 17° 297° (WNW) 13:38:14 437.445
Gurwin Techsat 1B 04 Mar 13:41:55 13:46:47 39° 68° (ENE) 13:51:43 435.225
TISAT 1 04 Mar 13:52:42 13:56:36 36° 290° (WNW) 14:00:27 437.305
Oscar 19 04 Mar 13:55:19 14:00:15 45° 262° (W) 14:05:11 437.125/150
SPROUT 04 Mar 13:56:01 13:59:50 31° 291° (WNW) 14:03:35 437.525
ITAMSAT 1 04 Mar 13:57:38 14:02:49 70° 73° (ENE) 14:08:04 435.822/435.867
JAS-2 04 Mar 14:13:59 14:14:53 10° 48° (NE) 14:16:08 435.910
ISS 04 Mar 14:14:09 14:17:20 55° 24° (NNE) 14:20:32 145.825
KKS-1 04 Mar 14:14:29 14:15:38 11° 86° (E) 14:17:04 437.445
SWISSCUBE 04 Mar 14:25:02 14:29:53 79° 104° (ESE) 14:34:42 437.505
BEESAT 04 Mar 14:33:17 14:38:08 87° 102° (ESE) 14:42:57 436.000
ITUPSAT 1 04 Mar 15:02:06 15:06:49 52° 289° (WNW) 15:11:29 437.325
AO-7 04 Mar 15:15:02 15:23:10 61° 65° (ENE) 15:31:20 29.400- 29.500
HORYU 2 04 Mar 15:15:58 15:20:24 79° 75° (ENE) 15:24:50 437.375
YUBILEINY 04 Mar 15:21:04 15:27:56 28° 82° (E) 15:35:06 435.215
Gurwin Techsat 1B 04 Mar 15:22:11 15:26:52 30° 266° (W) 15:31:31 435.225
ITAMSAT 1 04 Mar 15:39:36 15:42:56 16° 272° (W) 15:46:05 435.822/435.867
KKS-1 04 Mar 15:48:29 15:52:57 78° 285° (WNW) 15:57:22 437.445
STARS 04 Mar 15:50:01 15:54:26 73° 102° (ESE) 15:58:47 437.465
ISS 04 Mar 15:50:54 15:53:35 24° 222° (SW) 15:56:14 145.825
JAS-2 04 Mar 15:53:04 15:58:31 55° 69° (ENE) 16:04:43 435.910
SWISSCUBE 04 Mar 16:04:30 16:07:12 15° 300° (WNW) 16:09:42 437.505
BEESAT 04 Mar 16:13:01 16:15:22 13° 301° (WNW) 16:17:30 436.000
CUTE-I 04 Mar 16:14:59 16:15:20 10° 54° (NE) 16:16:01 437.470
HORYU 2 04 Mar 16:56:28 16:57:44 11° 273° (W) 16:58:44 437.375
BEESAT 3 04 Mar 17:02:26 17:06:10 35° 118° (ESE) 17:10:00 437.485
AO-7 04 Mar 17:09:02 17:16:28 34° 265° (W) 17:23:45 29.400- 29.500
VERMONT LUNAR 04 Mar 17:14:02 17:16:28 18° 157° (SSE) 17:18:57 437.305
MOZHAYETS 4 04 Mar 17:14:58 17:19:27 47° 98° (E) 17:23:56
YUBILEINY 04 Mar 17:15:23 17:24:07 69° 282° (WNW) 17:32:55 435.215
STARS 04 Mar 17:28:11 17:30:23 13° 299° (WNW) 17:32:25 437.465
BEESAT 2 04 Mar 17:30:04 17:34:06 59° 121° (ESE) 17:38:14 435.950
M-CUBED/EXP-1 PRIME 04 Mar 17:30:17 17:34:33 71° 107° (ESE) 17:39:09 437.505
AUBIESAT-1 04 Mar 17:30:23 17:34:38 64° 107° (ESE) 17:39:13 437.475
AIST 1 04 Mar 17:31:02 17:34:06 19° 68° (ENE) 17:37:16
PHONESAT 2.4 04 Mar 17:33:49 17:35:53 15° 153° (SSE) 17:38:00 2401.200-2431.200
JAS-2 04 Mar 17:39:42 17:44:14 24° 272° (W) 17:49:01 435.910
AIST 2 04 Mar 17:40:02 17:43:44 30° 116° (ESE) 17:47:32 435.215
Cubesat XI-IV 04 Mar 17:40:58 17:46:09 53° 70° (ENE) 17:51:25 437.490
O/OREOS (USA 219) 04 Mar 17:42:41 17:45:15 15° 47° (NE) 17:47:57 437.305
CUTE-I 04 Mar 17:49:12 17:54:28 61° 72° (ENE) 17:59:48 437.470
HO-68 04 Mar 18:12:24 18:14:32 12° 45° (NE) 18:17:01 435.675
BEESAT 3 04 Mar 18:40:42 18:44:20 28° 316° (NW) 18:47:58 437.485
STRAND 1 04 Mar 18:42:15 18:45:53 20° 90° (E) 18:49:39 437.568
VERMONT LUNAR 04 Mar 18:50:38 18:53:53 36° 173° (S) 18:57:09 437.305
MOZHAYETS 4 04 Mar 18:52:54 18:56:25 21° 295° (WNW) 18:59:49
GOMX 1 04 Mar 19:06:19 19:08:48 14° 61° (ENE) 19:11:26 467.674
AUBIESAT-1 04 Mar 19:06:25 19:09:10 17° 301° (WNW) 19:11:54 437.475
M-CUBED/EXP-1 PRIME 04 Mar 19:06:35 19:09:07 15° 302° (WNW) 19:11:36 437.505
AIST 1 04 Mar 19:07:51 19:12:05 44° 267° (W) 19:16:15
PRISM 04 Mar 19:07:59 19:12:09 53° 101° (E) 19:16:17 437.425
BEESAT 2 04 Mar 19:09:28 19:12:39 20° 321° (NW) 19:15:49 435.950
PHONESAT 2.4 04 Mar 19:10:26 19:13:46 34° 169° (S) 19:17:06 2401.200-2431.200
